Tiempo cada hora Bolshie Tigany

Hoy, 31 Julio, Sábado

Tiempo Temperatura Precipitaciones Viento Presión Humedad
00:00 +21°C° 0 mm 3 mps 743 mmHg 74%
01:00 +21°C° 0.2 mm 3 mps 743 mmHg 78%
02:00 +20°C° 0.2 mm 4 mps 743 mmHg 83%
03:00 +19°C° 0.2 mm 4 mps 743 mmHg 87%
04:00 +20°C° 0 mm 4 mps 743 mmHg 87%
05:00 +20°C° 0 mm 4 mps 742 mmHg 87%
06:00 +21°C° 0 mm 4 mps 742 mmHg 86%
07:00 +22°C° 0 mm 4 mps 742 mmHg 78%
08:00 +25°C° 0 mm 5 mps 742 mmHg 70%
09:00 +27°C° 0 mm 5 mps 742 mmHg 62%
10:00 +27°C° 0.2 mm 6 mps 742 mmHg 62%
11:00 +27°C° 0.2 mm 7 mps 742 mmHg 62%
12:00 +28°C° 0.2 mm 8 mps 742 mmHg 63%
13:00 +28°C° 0.2 mm 7 mps 742 mmHg 59%
14:00 +28°C° 0.2 mm 7 mps 743 mmHg 56%
15:00 +29°C° 0.2 mm 7 mps 743 mmHg 52%
16:00 +28°C° 0 mm 7 mps 743 mmHg 55%
17:00 +27°C° 0 mm 6 mps 743 mmHg 58%
18:00 +27°C° 0 mm 6 mps 743 mmHg 61%
19:00 +25°C° 0 mm 5 mps 744 mmHg 67%
20:00 +23°C° 0 mm 4 mps 744 mmHg 73%
21:00 +21°C° 0 mm 4 mps 744 mmHg 80%
22:00 +21°C° 0 mm 4 mps 745 mmHg 78%
23:00 +20°C° 0 mm 4 mps 745 mmHg 77%

Mañana, 1 Agosto, Domingo

Tiempo Temperatura Precipitaciones Viento Presión Humedad
00:00 +20°C° 0 mm 4 mps 745 mmHg 76%
01:00 +19°C° 0 mm 4 mps 746 mmHg 77%
02:00 +18°C° 0 mm 3 mps 746 mmHg 77%
03:00 +18°C° 0 mm 3 mps 746 mmHg 78%
04:00 +19°C° 0 mm 4 mps 746 mmHg 73%
05:00 +19°C° 0 mm 4 mps 747 mmHg 69%
06:00 +20°C° 0 mm 4 mps 747 mmHg 65%
07:00 +22°C° 0 mm 4 mps 748 mmHg 58%
08:00 +25°C° 0 mm 4 mps 748 mmHg 52%
09:00 +26°C° 0 mm 4 mps 748 mmHg 45%
10:00 +27°C° 0 mm 5 mps 748 mmHg 43%
11:00 +28°C° 0 mm 5 mps 748 mmHg 40%
12:00 +29°C° 0 mm 5 mps 748 mmHg 37%
13:00 +29°C° 0 mm 5 mps 748 mmHg 37%
14:00 +30°C° 0 mm 5 mps 748 mmHg 36%
15:00 +30°C° 0 mm 5 mps 748 mmHg 36%
16:00 +29°C° 0 mm 4 mps 748 mmHg 39%
17:00 +28°C° 0 mm 3 mps 749 mmHg 42%
18:00 +28°C° 0 mm 2 mps 749 mmHg 46%
19:00 +26°C° 0 mm 2 mps 749 mmHg 49%
20:00 +24°C° 0 mm 2 mps 749 mmHg 53%
21:00 +23°C° 0 mm 1 mps 749 mmHg 56%
22:00 +21°C° 0 mm 2 mps 749 mmHg 58%
23:00 +21°C° 0 mm 2 mps 749 mmHg 59%

Pasado mañana, 2 Agosto, Lunes

Tiempo Temperatura Precipitaciones Viento Presión Humedad
00:00 +20°C° 0 mm 2 mps 749 mmHg 61%
01:00 +20°C° 0 mm 2 mps 749 mmHg 62%
02:00 +20°C° 0 mm 2 mps 749 mmHg 63%
03:00 +19°C° 0 mm 3 mps 750 mmHg 64%
04:00 +20°C° 0 mm 3 mps 750 mmHg 64%
05:00 +21°C° 0 mm 3 mps 750 mmHg 63%
06:00 +22°C° 0 mm 3 mps 750 mmHg 62%
07:00 +25°C° 0 mm 3 mps 750 mmHg 55%
08:00 +27°C° 0 mm 3 mps 750 mmHg 48%
09:00 +29°C° 0 mm 4 mps 750 mmHg 42%
10:00 +30°C° 0 mm 4 mps 750 mmHg 38%
11:00 +33°C° 0 mm 4 mps 750 mmHg 35%
12:00 +34°C° 0 mm 4 mps 750 mmHg 32%
13:00 +34°C° 0 mm 4 mps 749 mmHg 31%
14:00 +34°C° 0 mm 4 mps 749 mmHg 30%
15:00 +35°C° 0 mm 4 mps 749 mmHg 30%
16:00 +34°C° 0 mm 3 mps 749 mmHg 33%
17:00 +33°C° 0 mm 3 mps 749 mmHg 36%
18:00 +31°C° 0 mm 2 mps 748 mmHg 39%
19:00 +30°C° 0 mm 2 mps 748 mmHg 40%
20:00 +28°C° 0 mm 2 mps 748 mmHg 42%
21:00 +26°C° 0 mm 3 mps 749 mmHg 43%
22:00 +26°C° 0 mm 3 mps 748 mmHg 46%
23:00 +25°C° 0 mm 3 mps 748 mmHg 49%

3 Agosto, Martes

Tiempo Temperatura Precipitaciones Viento Presión Humedad
00:00 +24°C° 0 mm 3 mps 748 mmHg 52%
01:00 +22°C° 0 mm 3 mps 748 mmHg 53%
02:00 +22°C° 0 mm 3 mps 748 mmHg 54%
03:00 +22°C° 0 mm 3 mps 748 mmHg 54%
04:00 +22°C° 0 mm 3 mps 748 mmHg 53%
05:00 +24°C° 0 mm 3 mps 748 mmHg 53%
06:00 +25°C° 0 mm 3 mps 747 mmHg 52%
07:00 +27°C° 0 mm 4 mps 747 mmHg 47%
08:00 +29°C° 0 mm 4 mps 747 mmHg 42%
09:00 +32°C° 0 mm 4 mps 747 mmHg 38%
10:00 +34°C° 0 mm 5 mps 747 mmHg 33%
11:00 +36°C° 0 mm 5 mps 746 mmHg 28%
12:00 +39°C° 0 mm 5 mps 746 mmHg 24%
13:00 +39°C° 0 mm 5 mps 746 mmHg 23%
14:00 +39°C° 0 mm 5 mps 745 mmHg 22%
15:00 +40°C° 0 mm 5 mps 745 mmHg 21%
16:00 +37°C° 0 mm 4 mps 745 mmHg 25%
17:00 +36°C° 0 mm 4 mps 745 mmHg 30%
18:00 +34°C° 0 mm 4 mps 745 mmHg 34%
19:00 +31°C° 0 mm 3 mps 745 mmHg 41%
20:00 +29°C° 0 mm 3 mps 745 mmHg 47%
21:00 +27°C° 0 mm 2 mps 745 mmHg 54%
22:00 +26°C° 0.1 mm 2 mps 746 mmHg 58%
23:00 +25°C° 0.1 mm 3 mps 746 mmHg 63%

4 Agosto, Miércoles

Tiempo Temperatura Precipitaciones Viento Presión Humedad
00:00 +24°C° 0.1 mm 3 mps 746 mmHg 68%
01:00 +24°C° 0.3 mm 2 mps 746 mmHg 70%
02:00 +23°C° 0.3 mm 2 mps 746 mmHg 72%
03:00 +22°C° 0.3 mm 1 mps 746 mmHg 74%
04:00 +23°C° 0.1 mm 1 mps 746 mmHg 74%
05:00 +23°C° 0.1 mm 1 mps 746 mmHg 73%
06:00 +24°C° 0.1 mm 1 mps 746 mmHg 72%
07:00 +24°C° 0 mm 2 mps 746 mmHg 68%
08:00 +25°C° 0 mm 3 mps 746 mmHg 64%
09:00 +26°C° 0 mm 4 mps 747 mmHg 60%
10:00 +26°C° 0 mm 4 mps 747 mmHg 60%
11:00 +26°C° 0 mm 5 mps 747 mmHg 60%
12:00 +26°C° 0 mm 5 mps 747 mmHg 60%
13:00 +27°C° 0 mm 5 mps 747 mmHg 56%
14:00 +27°C° 0 mm 5 mps 748 mmHg 52%
15:00 +28°C° 0 mm 6 mps 748 mmHg 48%
16:00 +27°C° 0 mm 5 mps 748 mmHg 50%
17:00 +26°C° 0 mm 5 mps 748 mmHg 51%
18:00 +26°C° 0 mm 4 mps 748 mmHg 53%
19:00 +23°C° 0 mm 4 mps 749 mmHg 59%
20:00 +21°C° 0 mm 3 mps 749 mmHg 65%
21:00 +20°C° 0 mm 3 mps 749 mmHg 71%
22:00 +19°C° 0 mm 3 mps 749 mmHg 74%
23:00 +19°C° 0 mm 3 mps 749 mmHg 77%

5 Agosto, Jueves

Tiempo Temperatura Precipitaciones Viento Presión Humedad
00:00 +18°C° 0 mm 3 mps 749 mmHg 80%
01:00 +18°C° 0 mm 2 mps 750 mmHg 82%
02:00 +17°C° 0 mm 2 mps 750 mmHg 85%
03:00 +17°C° 0 mm 2 mps 750 mmHg 87%
04:00 +17°C° 0 mm 3 mps 750 mmHg 83%
05:00 +18°C° 0 mm 3 mps 750 mmHg 79%
06:00 +19°C° 0 mm 4 mps 750 mmHg 75%
07:00 +20°C° 0 mm 4 mps 751 mmHg 68%
08:00 +21°C° 0 mm 4 mps 751 mmHg 61%
09:00 +23°C° 0 mm 5 mps 751 mmHg 54%
10:00 +25°C° 0 mm 5 mps 751 mmHg 50%
11:00 +26°C° 0 mm 5 mps 751 mmHg 46%
12:00 +27°C° 0 mm 5 mps 751 mmHg 42%
13:00 +27°C° 0 mm 5 mps 751 mmHg 40%
14:00 +27°C° 0 mm 5 mps 751 mmHg 39%
15:00 +28°C° 0 mm 5 mps 751 mmHg 37%
16:00 +27°C° 0 mm 5 mps 751 mmHg 39%
17:00 +26°C° 0 mm 5 mps 751 mmHg 42%
18:00 +26°C° 0 mm 4 mps 751 mmHg 44%
19:00 +23°C° 0 mm 4 mps 751 mmHg 50%
20:00 +21°C° 0 mm 4 mps 751 mmHg 55%
21:00 +20°C° 0 mm 4 mps 751 mmHg 61%
22:00 +19°C° 0 mm 4 mps 751 mmHg 66%
23:00 +18°C° 0 mm 4 mps 752 mmHg 71%
Mostrar más